Year,Month,Day,Hour,Minute,Value (Times are PST for temperature in C)
2020,04,10,00,00,8.00
2020,04,10,00,01,8.00
2020,04,10,00,02,8.00
2020,04,10,00,03,8.00
2020,04,10,00,04,8.00
2020,04,10,00,05,8.00
2020,04,10,00,06,7.90
2020,04,10,00,07,7.90
2020,04,10,00,08,7.90
2020,04,10,00,09,7.90
2020,04,10,00,10,7.90
2020,04,10,00,11,7.90
2020,04,10,00,12,7.80
2020,04,10,00,13,7.80
2020,04,10,00,14,7.80
2020,04,10,00,15,7.80
2020,04,10,00,16,7.80
2020,04,10,00,17,7.80
2020,04,10,00,18,7.80
2020,04,10,00,19,7.80
2020,04,10,00,20,7.80
2020,04,10,00,21,7.80
2020,04,10,00,22,7.80
2020,04,10,00,23,7.70
2020,04,10,00,24,7.70
2020,04,10,00,25,7.70
2020,04,10,00,26,7.70
2020,04,10,00,27,7.70
2020,04,10,00,28,7.70
2020,04,10,00,29,7.70
2020,04,10,00,30,7.70
2020,04,10,00,31,7.70
2020,04,10,00,32,7.70
2020,04,10,00,33,7.70
2020,04,10,00,34,7.70
2020,04,10,00,35,7.70
2020,04,10,00,36,7.70
2020,04,10,00,37,7.70
2020,04,10,00,38,7.60
2020,04,10,00,39,7.60
2020,04,10,00,40,7.60
2020,04,10,00,41,7.60
2020,04,10,00,42,7.60
2020,04,10,00,43,7.60
2020,04,10,00,44,7.60
2020,04,10,00,45,7.60
2020,04,10,00,46,7.60
2020,04,10,00,47,7.60
2020,04,10,00,48,7.60
2020,04,10,00,49,7.60
2020,04,10,00,50,7.60
2020,04,10,00,51,7.60
2020,04,10,00,52,7.50
2020,04,10,00,53,7.50
2020,04,10,00,54,7.60
2020,04,10,00,55,7.60
2020,04,10,00,56,7.50
2020,04,10,00,57,7.50
2020,04,10,00,58,7.40
2020,04,10,00,59,7.40
2020,04,10,01,00,7.40
2020,04,10,01,01,7.30
2020,04,10,01,02,7.30
2020,04,10,01,03,7.30
2020,04,10,01,04,7.30
2020,04,10,01,05,7.30
2020,04,10,01,06,7.30
2020,04,10,01,07,7.30
2020,04,10,01,08,7.30
2020,04,10,01,09,7.30
2020,04,10,01,10,7.30
2020,04,10,01,11,7.30
2020,04,10,01,12,7.20
2020,04,10,01,13,7.30
2020,04,10,01,14,7.20
2020,04,10,01,15,7.20
2020,04,10,01,16,7.20
2020,04,10,01,17,7.20
2020,04,10,01,18,7.20
2020,04,10,01,19,7.20
2020,04,10,01,20,7.20
2020,04,10,01,21,7.20
2020,04,10,01,22,7.20
2020,04,10,01,23,7.20
2020,04,10,01,24,7.10
2020,04,10,01,25,7.10
2020,04,10,01,26,7.10
2020,04,10,01,27,7.10
2020,04,10,01,28,7.10
2020,04,10,01,29,7.10
2020,04,10,01,30,7.10
2020,04,10,01,31,7.10
2020,04,10,01,32,7.10
2020,04,10,01,33,7.10
2020,04,10,01,34,7.10
2020,04,10,01,35,7.10
2020,04,10,01,36,7.10
2020,04,10,01,37,7.10
2020,04,10,01,38,7.10
2020,04,10,01,39,7.00
2020,04,10,01,40,7.00
2020,04,10,01,41,7.00
2020,04,10,01,42,7.00
2020,04,10,01,43,7.00
2020,04,10,01,44,6.90
2020,04,10,01,45,6.90
2020,04,10,01,46,6.90
2020,04,10,01,47,6.90
2020,04,10,01,48,6.90
2020,04,10,01,49,6.90
2020,04,10,01,50,6.90
2020,04,10,01,51,6.90
2020,04,10,01,52,6.90
2020,04,10,01,53,6.90
2020,04,10,01,54,6.90
2020,04,10,01,55,6.90
2020,04,10,01,56,6.90
2020,04,10,01,57,6.90
2020,04,10,01,58,6.90
2020,04,10,01,59,6.90
2020,04,10,02,00,6.90
2020,04,10,02,01,6.80
2020,04,10,02,02,6.80
2020,04,10,02,03,6.80
2020,04,10,02,04,6.80
2020,04,10,02,05,6.80
2020,04,10,02,06,6.80
2020,04,10,02,07,6.80
2020,04,10,02,08,6.80
2020,04,10,02,09,6.80
2020,04,10,02,10,6.70
2020,04,10,02,11,6.70
2020,04,10,02,12,6.70
2020,04,10,02,13,6.70
2020,04,10,02,14,6.70
2020,04,10,02,15,6.70
2020,04,10,02,16,6.70
2020,04,10,02,17,6.70
2020,04,10,02,18,6.70
2020,04,10,02,19,6.70
2020,04,10,02,20,6.70
2020,04,10,02,21,6.70
2020,04,10,02,22,6.70
2020,04,10,02,23,6.70
2020,04,10,02,24,6.70
2020,04,10,02,25,6.70
2020,04,10,02,26,6.70
2020,04,10,02,27,6.70
2020,04,10,02,28,6.70
2020,04,10,02,29,6.70
2020,04,10,02,30,6.70
2020,04,10,02,31,6.70
2020,04,10,02,32,6.70
2020,04,10,02,33,6.70
2020,04,10,02,34,6.70
2020,04,10,02,35,6.70
2020,04,10,02,36,6.70
2020,04,10,02,37,6.70
2020,04,10,02,38,6.70
2020,04,10,02,39,6.70
2020,04,10,02,40,6.70
2020,04,10,02,41,6.70
2020,04,10,02,42,6.70
2020,04,10,02,43,6.70
2020,04,10,02,44,6.60
2020,04,10,02,45,6.60
2020,04,10,02,46,6.60
2020,04,10,02,47,6.60
2020,04,10,02,48,6.50
2020,04,10,02,49,6.50
2020,04,10,02,50,6.50
2020,04,10,02,51,6.50
2020,04,10,02,52,6.50
2020,04,10,02,53,6.50
2020,04,10,02,54,6.50
2020,04,10,02,55,6.50
2020,04,10,02,56,6.50
2020,04,10,02,57,6.50
2020,04,10,02,58,6.50
2020,04,10,02,59,6.60
2020,04,10,03,00,6.60
2020,04,10,03,01,6.60
2020,04,10,03,02,6.60
2020,04,10,03,03,6.60
2020,04,10,03,04,6.60
2020,04,10,03,05,6.60
2020,04,10,03,06,6.60
2020,04,10,03,07,6.60
2020,04,10,03,08,6.60
2020,04,10,03,09,6.60
2020,04,10,03,10,6.50
2020,04,10,03,11,6.50
2020,04,10,03,12,6.50
2020,04,10,03,13,6.50
2020,04,10,03,14,6.50
2020,04,10,03,15,6.40
2020,04,10,03,16,6.40
2020,04,10,03,17,6.40
2020,04,10,03,18,6.40
2020,04,10,03,19,6.40
2020,04,10,03,20,6.40
2020,04,10,03,21,6.40
2020,04,10,03,22,6.40
2020,04,10,03,23,6.40
2020,04,10,03,24,6.40
2020,04,10,03,25,6.40
2020,04,10,03,26,6.40
2020,04,10,03,27,6.40
2020,04,10,03,28,6.40
2020,04,10,03,29,6.40
2020,04,10,03,30,6.40
2020,04,10,03,31,6.40
2020,04,10,03,32,6.50
2020,04,10,03,33,6.50
2020,04,10,03,34,6.60
2020,04,10,03,35,6.60
2020,04,10,03,36,6.60
2020,04,10,03,37,6.60
2020,04,10,03,38,6.60
2020,04,10,03,39,6.60
2020,04,10,03,40,6.60
2020,04,10,03,41,6.60
2020,04,10,03,42,6.50
2020,04,10,03,43,6.50
2020,04,10,03,44,6.50
2020,04,10,03,45,6.50
2020,04,10,03,46,6.50
2020,04,10,03,47,6.50
2020,04,10,03,48,6.50
2020,04,10,03,49,6.50
2020,04,10,03,50,6.40
2020,04,10,03,51,6.40
2020,04,10,03,52,6.40
2020,04,10,03,53,6.40
2020,04,10,03,54,6.40
2020,04,10,03,55,6.40
2020,04,10,03,56,6.40
2020,04,10,03,57,6.40
2020,04,10,03,58,6.40
2020,04,10,03,59,6.40
2020,04,10,04,00,6.40
2020,04,10,04,01,6.40
2020,04,10,04,02,6.40
2020,04,10,04,03,6.40
2020,04,10,04,04,6.40
2020,04,10,04,08,6.40
2020,04,10,04,09,6.40
2020,04,10,04,10,6.40
2020,04,10,04,11,6.40
2020,04,10,04,12,6.30
2020,04,10,04,13,6.30
2020,04,10,04,14,6.30
2020,04,10,04,15,6.30
2020,04,10,04,16,6.30
2020,04,10,04,17,6.30
2020,04,10,04,18,6.30
2020,04,10,04,19,6.30
2020,04,10,04,20,6.30
2020,04,10,04,21,6.30
2020,04,10,04,22,6.30
2020,04,10,04,23,6.30
2020,04,10,04,24,6.30
2020,04,10,04,25,6.30
2020,04,10,04,26,6.20
2020,04,10,04,27,6.20
2020,04,10,04,28,6.20
2020,04,10,04,29,6.20
2020,04,10,04,30,6.20
2020,04,10,04,31,6.20
2020,04,10,04,32,6.20
2020,04,10,04,33,6.20
2020,04,10,04,34,6.20
2020,04,10,04,35,6.20
2020,04,10,04,36,6.20
2020,04,10,04,37,6.20
2020,04,10,04,38,6.20
2020,04,10,04,39,6.20
2020,04,10,04,40,6.20
2020,04,10,04,41,6.20
2020,04,10,04,42,6.20
2020,04,10,04,43,6.20
2020,04,10,04,44,6.20
2020,04,10,04,45,6.20
2020,04,10,04,46,6.20
2020,04,10,04,47,6.20
2020,04,10,04,48,6.20
2020,04,10,04,49,6.30
2020,04,10,04,50,6.30
2020,04,10,04,51,6.30
2020,04,10,04,52,6.30
2020,04,10,04,53,6.30
2020,04,10,04,54,6.30
2020,04,10,04,55,6.30
2020,04,10,04,56,6.30
2020,04,10,04,57,6.30
2020,04,10,04,58,6.30
2020,04,10,04,59,6.20
2020,04,10,05,00,6.20
2020,04,10,05,01,6.20
2020,04,10,05,02,6.20
2020,04,10,05,03,6.20
2020,04,10,05,04,6.20
2020,04,10,05,05,6.20
2020,04,10,05,06,6.20
2020,04,10,05,07,6.20
2020,04,10,05,08,6.10
2020,04,10,05,09,6.20
2020,04,10,05,10,6.20
2020,04,10,05,11,6.10
2020,04,10,05,12,6.10
2020,04,10,05,13,6.10
2020,04,10,05,14,6.10
2020,04,10,05,15,6.10
2020,04,10,05,16,6.00
2020,04,10,05,17,6.00
2020,04,10,05,18,5.90
2020,04,10,05,19,5.80
2020,04,10,05,20,5.80
2020,04,10,05,21,5.80
2020,04,10,05,22,5.70
2020,04,10,05,23,5.70
2020,04,10,05,24,5.70
2020,04,10,05,25,5.70
2020,04,10,05,26,5.60
2020,04,10,05,27,5.60
2020,04,10,05,28,5.60
2020,04,10,05,29,5.60
2020,04,10,05,30,5.60
2020,04,10,05,31,5.60
2020,04,10,05,32,5.60
2020,04,10,05,33,5.60
2020,04,10,05,34,5.50
2020,04,10,05,35,5.50
2020,04,10,05,36,5.50
2020,04,10,05,37,5.50
2020,04,10,05,38,5.50
2020,04,10,05,39,5.60
2020,04,10,05,40,5.60
2020,04,10,05,41,5.60
2020,04,10,05,42,5.60
2020,04,10,05,43,5.70
2020,04,10,05,44,5.60
2020,04,10,05,45,5.60
2020,04,10,05,46,5.60
2020,04,10,05,47,5.60
2020,04,10,05,48,5.60
2020,04,10,05,49,5.60
2020,04,10,05,50,5.60
2020,04,10,05,51,5.70
2020,04,10,05,52,5.70
2020,04,10,05,53,5.70
2020,04,10,05,54,5.70
2020,04,10,05,55,5.70
2020,04,10,05,56,5.70
2020,04,10,05,57,5.60
2020,04,10,05,58,5.60
2020,04,10,05,59,5.60
2020,04,10,06,00,5.60
2020,04,10,06,01,5.60
2020,04,10,06,02,5.70
2020,04,10,06,03,5.70
2020,04,10,06,04,5.70
2020,04,10,06,05,5.70
2020,04,10,06,06,5.70
2020,04,10,06,07,5.70
2020,04,10,06,08,5.70
2020,04,10,06,09,5.80
2020,04,10,06,10,5.80
2020,04,10,06,11,5.80
2020,04,10,06,12,5.80
2020,04,10,06,13,5.80
2020,04,10,06,14,5.80
2020,04,10,06,15,5.80
2020,04,10,06,16,5.70
2020,04,10,06,17,5.70
2020,04,10,06,18,5.70
2020,04,10,06,19,5.70
2020,04,10,06,20,5.60
2020,04,10,06,21,5.60
2020,04,10,06,22,5.60
2020,04,10,06,23,5.60
2020,04,10,06,24,5.60
2020,04,10,06,25,5.60
2020,04,10,06,26,5.60
2020,04,10,06,27,5.60
2020,04,10,06,28,5.60
2020,04,10,06,29,5.60
2020,04,10,06,30,5.60
2020,04,10,06,31,5.60
2020,04,10,06,32,5.60
2020,04,10,06,33,5.60
2020,04,10,06,34,5.60
2020,04,10,06,35,5.60
2020,04,10,06,36,5.60
2020,04,10,06,37,5.60
2020,04,10,06,38,5.60
2020,04,10,06,39,5.60
2020,04,10,06,40,5.60
2020,04,10,06,41,5.60
2020,04,10,06,42,5.60
2020,04,10,06,43,5.60
2020,04,10,06,44,5.70
2020,04,10,06,45,5.70
2020,04,10,06,46,5.70
2020,04,10,06,47,5.70
2020,04,10,06,48,5.70
2020,04,10,06,49,5.70
2020,04,10,06,50,5.70
2020,04,10,06,51,5.70
2020,04,10,06,52,5.70
2020,04,10,06,53,5.70
2020,04,10,06,54,5.70
2020,04,10,06,55,5.80
2020,04,10,06,56,5.80
2020,04,10,06,57,5.80
2020,04,10,06,58,5.80
2020,04,10,06,59,5.80
2020,04,10,07,00,5.80
2020,04,10,07,01,5.80
2020,04,10,07,02,5.80
2020,04,10,07,03,5.90
2020,04,10,07,04,5.80
2020,04,10,07,05,5.80
2020,04,10,07,06,5.80
2020,04,10,07,07,5.80
2020,04,10,07,08,5.70
2020,04,10,07,09,5.70
2020,04,10,07,10,5.70
2020,04,10,07,11,5.70
2020,04,10,07,12,5.70
2020,04,10,07,13,5.70
2020,04,10,07,14,5.70
2020,04,10,07,15,5.70
2020,04,10,07,16,5.80
2020,04,10,07,17,5.80
2020,04,10,07,18,5.80
2020,04,10,07,19,5.80
2020,04,10,07,20,5.80
2020,04,10,07,21,5.80
2020,04,10,07,22,5.80
2020,04,10,07,23,5.80
2020,04,10,07,24,5.80
2020,04,10,07,25,5.80
2020,04,10,07,26,5.90
2020,04,10,07,27,5.90
2020,04,10,07,28,5.90
2020,04,10,07,29,5.90
2020,04,10,07,30,5.90
2020,04,10,07,31,5.90
2020,04,10,07,32,5.90
2020,04,10,07,33,5.90
2020,04,10,07,34,5.90
2020,04,10,07,35,6.00
2020,04,10,07,36,6.00
2020,04,10,07,37,6.10
2020,04,10,07,38,6.20
2020,04,10,07,39,6.20
2020,04,10,07,40,6.20
2020,04,10,07,41,6.30
2020,04,10,07,42,6.30
2020,04,10,07,43,6.30
2020,04,10,07,44,6.40
2020,04,10,07,45,6.40
2020,04,10,07,46,6.40
2020,04,10,07,47,6.50
2020,04,10,07,48,6.60
2020,04,10,07,49,6.70
2020,04,10,07,50,6.70
2020,04,10,07,51,6.80
2020,04,10,07,52,6.90
2020,04,10,07,53,7.00
2020,04,10,07,54,7.10
2020,04,10,07,55,7.20
2020,04,10,07,56,7.30
2020,04,10,07,57,7.30
2020,04,10,07,58,7.30
2020,04,10,07,59,7.40
2020,04,10,08,00,7.40
2020,04,10,08,01,7.50
2020,04,10,08,02,7.60
2020,04,10,08,03,7.60
2020,04,10,08,04,7.70
2020,04,10,08,05,7.70
2020,04,10,08,06,7.80
2020,04,10,08,07,7.90
2020,04,10,08,08,8.00
2020,04,10,08,09,8.10
2020,04,10,08,10,8.20
2020,04,10,08,11,8.20
2020,04,10,08,12,8.30
2020,04,10,08,13,8.40
2020,04,10,08,14,8.50
2020,04,10,08,15,8.60
2020,04,10,08,16,8.70
2020,04,10,08,17,8.80
2020,04,10,08,18,8.80
2020,04,10,08,19,8.90
2020,04,10,08,20,9.00
2020,04,10,08,21,9.00
2020,04,10,08,22,9.10
2020,04,10,08,23,9.20
2020,04,10,08,24,9.30
2020,04,10,08,25,9.40
2020,04,10,08,26,9.50
2020,04,10,08,27,9.60
2020,04,10,08,28,9.70
2020,04,10,08,29,9.80
2020,04,10,08,30,9.80
2020,04,10,08,31,9.90
2020,04,10,08,32,9.90
2020,04,10,08,33,10.00
2020,04,10,08,34,10.00
2020,04,10,08,35,10.10
2020,04,10,08,36,10.10
2020,04,10,08,37,10.20
2020,04,10,08,38,10.20
2020,04,10,08,39,10.30
2020,04,10,08,40,10.40
2020,04,10,08,41,10.50
2020,04,10,08,42,10.60
2020,04,10,08,43,10.70
2020,04,10,08,44,10.70
2020,04,10,08,45,10.80
2020,04,10,08,46,10.80
2020,04,10,08,47,10.80
2020,04,10,08,48,10.80
2020,04,10,08,49,10.80
2020,04,10,08,50,10.90
2020,04,10,08,51,11.00
2020,04,10,08,52,11.00
2020,04,10,08,53,11.10
2020,04,10,08,54,11.20
2020,04,10,08,55,11.20
2020,04,10,08,56,11.20
2020,04,10,08,57,11.20
2020,04,10,08,58,11.10
2020,04,10,08,59,11.10
2020,04,10,09,00,11.00
2020,04,10,09,01,11.00
2020,04,10,09,02,10.90
2020,04,10,09,03,10.90
2020,04,10,09,04,10.90
2020,04,10,09,05,10.90
2020,04,10,09,06,10.90
2020,04,10,09,07,10.90
2020,04,10,09,08,10.90
2020,04,10,09,09,11.00
2020,04,10,09,10,11.00
2020,04,10,09,11,11.20
2020,04,10,09,12,11.20
2020,04,10,09,13,11.40
2020,04,10,09,14,11.50
2020,04,10,09,15,11.60
2020,04,10,09,16,11.70
2020,04,10,09,17,11.80
2020,04,10,09,18,11.80
2020,04,10,09,19,11.90
2020,04,10,09,20,11.90
2020,04,10,09,21,11.90
2020,04,10,09,22,11.90
2020,04,10,09,23,11.90
2020,04,10,09,24,11.90
2020,04,10,09,25,12.00
2020,04,10,09,26,12.10
2020,04,10,09,27,12.10
2020,04,10,09,28,12.20
2020,04,10,09,29,12.30
2020,04,10,09,30,12.30
2020,04,10,09,31,12.40
2020,04,10,09,32,12.40
2020,04,10,09,33,12.40
2020,04,10,09,34,12.30
2020,04,10,09,35,12.30
2020,04,10,09,36,12.30
2020,04,10,09,37,12.30
2020,04,10,09,38,12.30
2020,04,10,09,39,12.20
2020,04,10,09,40,12.20
2020,04,10,09,41,12.20
2020,04,10,09,42,12.20
2020,04,10,09,43,12.20
2020,04,10,09,44,12.10
2020,04,10,09,45,12.10
2020,04,10,09,46,12.10
2020,04,10,09,47,12.10
2020,04,10,09,48,12.10
2020,04,10,09,49,12.10
2020,04,10,09,50,12.20
2020,04,10,09,51,12.30
2020,04,10,09,52,12.30
2020,04,10,09,53,12.40
2020,04,10,09,54,12.40
2020,04,10,09,55,12.40
2020,04,10,09,56,12.40
2020,04,10,09,57,12.40
2020,04,10,09,58,12.40
2020,04,10,09,59,12.50
2020,04,10,10,00,12.60
2020,04,10,10,01,12.60
2020,04,10,10,02,12.60
2020,04,10,10,03,12.60
2020,04,10,10,04,12.60
2020,04,10,10,05,12.60
2020,04,10,10,06,12.60
2020,04,10,10,07,12.60
2020,04,10,10,08,12.60
2020,04,10,10,09,12.50
2020,04,10,10,10,12.40
2020,04,10,10,11,12.40
2020,04,10,10,12,12.30
2020,04,10,10,13,12.20
2020,04,10,10,14,12.10
2020,04,10,10,15,12.00
2020,04,10,10,16,12.00
2020,04,10,10,17,11.90
2020,04,10,10,18,11.90
2020,04,10,10,19,12.00
2020,04,10,10,20,12.00
2020,04,10,10,21,12.10
2020,04,10,10,22,12.10
2020,04,10,10,23,12.10
2020,04,10,10,24,12.10
2020,04,10,10,25,12.00
2020,04,10,10,26,12.10
2020,04,10,10,27,12.10
2020,04,10,10,28,12.20
2020,04,10,10,29,12.20
2020,04,10,10,30,12.20
2020,04,10,10,31,12.20
2020,04,10,10,32,12.20
2020,04,10,10,33,12.20
2020,04,10,10,34,12.20
2020,04,10,10,35,12.20
2020,04,10,10,36,12.30
2020,04,10,10,37,12.30
2020,04,10,10,38,12.40
2020,04,10,10,39,12.40
2020,04,10,10,40,12.40
2020,04,10,10,41,12.40
2020,04,10,10,42,12.40
2020,04,10,10,43,12.40
2020,04,10,10,44,12.30
2020,04,10,10,45,12.30
2020,04,10,10,46,12.30
2020,04,10,10,47,12.30
2020,04,10,10,48,12.30
2020,04,10,10,49,12.30
2020,04,10,10,50,12.30
2020,04,10,10,51,12.20
2020,04,10,10,52,12.20
2020,04,10,10,53,12.10
2020,04,10,10,54,12.10
2020,04,10,10,55,12.10
2020,04,10,10,56,12.10
2020,04,10,10,57,12.10
2020,04,10,10,58,12.10
2020,04,10,10,59,12.10
2020,04,10,11,00,12.20
2020,04,10,11,01,12.20
2020,04,10,11,02,12.20
2020,04,10,11,03,12.20
2020,04,10,11,04,12.20
2020,04,10,11,05,12.20
2020,04,10,11,06,12.20
2020,04,10,11,07,12.20
2020,04,10,11,08,12.20
2020,04,10,11,09,12.20
2020,04,10,11,10,12.20
2020,04,10,11,11,12.20
2020,04,10,11,12,12.20
2020,04,10,11,13,12.20
2020,04,10,11,14,12.20
2020,04,10,11,15,12.30
2020,04,10,11,16,12.40
2020,04,10,11,17,12.40
2020,04,10,11,18,12.50
2020,04,10,11,19,12.50
2020,04,10,11,20,12.60
2020,04,10,11,21,12.60
2020,04,10,11,22,12.60
2020,04,10,11,23,12.70
2020,04,10,11,24,12.70
2020,04,10,11,25,12.80
2020,04,10,11,26,12.80
2020,04,10,11,27,12.90
2020,04,10,11,28,12.90
2020,04,10,11,29,12.90
2020,04,10,11,30,12.90
2020,04,10,11,31,12.90
2020,04,10,11,32,13.00
2020,04,10,11,33,13.00
2020,04,10,11,34,13.10
2020,04,10,11,35,13.20
2020,04,10,11,36,13.20
2020,04,10,11,37,13.20
2020,04,10,11,38,13.20
2020,04,10,11,39,13.20
2020,04,10,11,40,13.20
2020,04,10,11,41,13.20
2020,04,10,11,42,13.30
2020,04,10,11,43,13.30
2020,04,10,11,44,13.40
2020,04,10,11,45,13.40
2020,04,10,11,46,13.50
2020,04,10,11,47,13.50
2020,04,10,11,48,13.50
2020,04,10,11,49,13.40
2020,04,10,11,50,13.40
2020,04,10,11,51,13.40
2020,04,10,11,52,13.40
2020,04,10,11,53,13.40
2020,04,10,11,54,13.40
2020,04,10,11,55,13.30
2020,04,10,11,56,13.20
2020,04,10,11,57,13.10
2020,04,10,11,58,13.00
2020,04,10,11,59,13.00
2020,04,10,12,00,12.90
2020,04,10,12,01,12.90
2020,04,10,12,02,13.00
2020,04,10,12,03,13.00
2020,04,10,12,04,13.10
2020,04,10,12,05,13.10
2020,04,10,12,06,13.20
2020,04,10,12,07,13.20
2020,04,10,12,08,13.10
2020,04,10,12,09,13.10
2020,04,10,12,10,13.00
2020,04,10,12,11,12.90
2020,04,10,12,12,12.90
2020,04,10,12,13,12.80
2020,04,10,12,14,12.70
2020,04,10,12,15,12.60
2020,04,10,12,16,12.60
2020,04,10,12,17,12.60
2020,04,10,12,18,12.50
2020,04,10,12,19,12.50
2020,04,10,12,20,12.60
2020,04,10,12,21,12.60
2020,04,10,12,22,12.60
2020,04,10,12,23,12.60
2020,04,10,12,24,12.70
2020,04,10,12,25,12.80
2020,04,10,12,26,12.80
2020,04,10,12,27,12.90
2020,04,10,12,28,12.90
2020,04,10,12,29,12.90
2020,04,10,12,30,12.90
2020,04,10,12,31,12.90
2020,04,10,12,32,13.00
2020,04,10,12,33,13.00
2020,04,10,12,34,12.90
2020,04,10,12,35,12.90
2020,04,10,12,36,12.90
2020,04,10,12,37,12.90
2020,04,10,12,38,12.80
2020,04,10,12,39,12.80
2020,04,10,12,40,12.80
2020,04,10,12,41,12.70
2020,04,10,12,42,12.70
2020,04,10,12,43,12.70
2020,04,10,12,44,12.80
2020,04,10,12,45,12.80
2020,04,10,12,46,12.70
2020,04,10,12,47,12.70
2020,04,10,12,48,12.70
2020,04,10,12,49,12.70
2020,04,10,12,50,12.70
2020,04,10,12,51,12.70
2020,04,10,12,52,12.70
2020,04,10,12,53,12.70
2020,04,10,12,54,12.70
2020,04,10,12,55,12.60
2020,04,10,12,56,12.70
2020,04,10,12,57,12.60
2020,04,10,12,58,12.60
2020,04,10,12,59,12.60
2020,04,10,13,00,12.60
2020,04,10,13,01,12.60
2020,04,10,13,02,12.60
2020,04,10,13,03,12.60
2020,04,10,13,04,12.60
2020,04,10,13,05,12.60
2020,04,10,13,06,12.70
2020,04,10,13,07,12.70
2020,04,10,13,08,12.80
2020,04,10,13,09,12.80
2020,04,10,13,10,12.80
2020,04,10,13,11,12.70
2020,04,10,13,12,12.60
2020,04,10,13,13,12.60
2020,04,10,13,14,12.60
2020,04,10,13,15,12.60
2020,04,10,13,16,12.60
2020,04,10,13,17,12.60
2020,04,10,13,18,12.70
2020,04,10,13,19,12.70
2020,04,10,13,20,12.70
2020,04,10,13,21,12.70
2020,04,10,13,22,12.70
2020,04,10,13,23,12.70
2020,04,10,13,24,12.80
2020,04,10,13,25,12.80
2020,04,10,13,26,12.80
2020,04,10,13,27,12.80
2020,04,10,13,28,12.80
2020,04,10,13,29,12.80
2020,04,10,13,30,12.80
2020,04,10,13,31,12.70
2020,04,10,13,32,12.70
2020,04,10,13,33,12.70
2020,04,10,13,34,12.70
2020,04,10,13,35,12.70
2020,04,10,13,36,12.70
2020,04,10,13,37,12.70
2020,04,10,13,38,12.60
2020,04,10,13,39,12.60
2020,04,10,13,40,12.70
2020,04,10,13,41,12.80
2020,04,10,13,42,12.80
2020,04,10,13,43,12.80
2020,04,10,13,44,12.80
2020,04,10,13,45,12.80
2020,04,10,13,46,12.70
2020,04,10,13,47,12.80
2020,04,10,13,48,12.90
2020,04,10,13,49,13.00
2020,04,10,13,50,13.20
2020,04,10,13,51,13.40
2020,04,10,13,52,13.60
2020,04,10,13,53,13.80
2020,04,10,13,54,13.90
2020,04,10,13,55,14.10
2020,04,10,13,56,14.30
2020,04,10,13,57,14.40
2020,04,10,13,58,14.50
2020,04,10,13,59,14.50
2020,04,10,14,00,14.60
2020,04,10,14,01,14.60
2020,04,10,14,02,14.70
2020,04,10,14,03,14.70
2020,04,10,14,04,14.80
2020,04,10,14,05,14.80
2020,04,10,14,06,14.90
2020,04,10,14,07,14.90
2020,04,10,14,08,14.90
2020,04,10,14,09,14.90
2020,04,10,14,10,14.90
2020,04,10,14,11,15.00
2020,04,10,14,12,15.00
2020,04,10,14,13,15.00
2020,04,10,14,14,15.10
2020,04,10,14,15,15.20
2020,04,10,14,16,15.20
2020,04,10,14,17,15.30
2020,04,10,14,18,15.20
2020,04,10,14,19,15.20
2020,04,10,14,20,15.20
2020,04,10,14,21,15.20
2020,04,10,14,22,15.30
2020,04,10,14,23,15.30
2020,04,10,14,24,15.30
2020,04,10,14,25,15.40
2020,04,10,14,26,15.50
2020,04,10,14,27,15.50
2020,04,10,14,28,15.50
2020,04,10,14,29,15.50
2020,04,10,14,30,15.40
2020,04,10,14,31,15.30
2020,04,10,14,32,15.30
2020,04,10,14,33,15.30
2020,04,10,14,34,15.30
2020,04,10,14,35,15.30
2020,04,10,14,36,15.30
2020,04,10,14,37,15.20
2020,04,10,14,38,15.20
2020,04,10,14,39,15.20
2020,04,10,14,40,15.20
2020,04,10,14,41,15.30
2020,04,10,14,42,15.30
2020,04,10,14,43,15.30
2020,04,10,14,44,15.30
2020,04,10,14,45,15.20
2020,04,10,14,46,15.20
2020,04,10,14,47,15.20
2020,04,10,14,48,15.30
2020,04,10,14,49,15.30
2020,04,10,14,50,15.30
2020,04,10,14,51,15.30
2020,04,10,14,52,15.30
2020,04,10,14,53,15.30
2020,04,10,14,54,15.30
2020,04,10,14,55,15.30
2020,04,10,14,56,15.30
2020,04,10,14,57,15.40
2020,04,10,14,58,15.40
2020,04,10,14,59,15.40
2020,04,10,15,00,15.40
2020,04,10,15,01,15.30
2020,04,10,15,02,15.20
2020,04,10,15,03,15.00
2020,04,10,15,04,14.90
2020,04,10,15,05,14.90
2020,04,10,15,06,14.80
2020,04,10,15,07,14.70
2020,04,10,15,08,14.70
2020,04,10,15,09,14.70
2020,04,10,15,10,14.60
2020,04,10,15,11,14.60
2020,04,10,15,12,14.60
2020,04,10,15,13,14.50
2020,04,10,15,14,14.50
2020,04,10,15,15,14.50
2020,04,10,15,16,14.50
2020,04,10,15,17,14.40
2020,04,10,15,18,14.40
2020,04,10,15,19,14.40
2020,04,10,15,20,14.40
2020,04,10,15,21,14.40
2020,04,10,15,22,14.40
2020,04,10,15,23,14.30
2020,04,10,15,24,14.30
2020,04,10,15,25,14.20
2020,04,10,15,26,14.20
2020,04,10,15,27,14.20
2020,04,10,15,28,14.20
2020,04,10,15,29,14.20
2020,04,10,15,30,14.30
2020,04,10,15,31,14.30
2020,04,10,15,32,14.30
2020,04,10,15,33,14.30
2020,04,10,15,34,14.30
2020,04,10,15,35,14.40
2020,04,10,15,36,14.50
2020,04,10,15,37,14.50
2020,04,10,15,38,14.50
2020,04,10,15,39,14.60
2020,04,10,15,40,14.60
2020,04,10,15,41,14.70
2020,04,10,15,42,14.80
2020,04,10,15,43,14.80
2020,04,10,15,44,14.90
2020,04,10,15,45,14.90
2020,04,10,15,46,15.00
2020,04,10,15,47,15.10
2020,04,10,15,48,15.10
2020,04,10,15,49,15.20
2020,04,10,15,50,15.20
2020,04,10,15,51,15.30
2020,04,10,15,52,15.30
2020,04,10,15,53,15.30
2020,04,10,15,54,15.20
2020,04,10,15,55,15.20
2020,04,10,15,56,15.20
2020,04,10,15,57,15.20
2020,04,10,15,58,15.20
2020,04,10,15,59,15.20
2020,04,10,16,00,15.20
2020,04,10,16,01,15.20
2020,04,10,16,02,15.20
2020,04,10,16,03,15.10
2020,04,10,16,04,15.10
2020,04,10,16,05,15.10
2020,04,10,16,06,15.10
2020,04,10,16,07,15.00
2020,04,10,16,08,15.00
2020,04,10,16,09,14.90
2020,04,10,16,10,14.90
2020,04,10,16,11,14.90
2020,04,10,16,12,14.90
2020,04,10,16,13,14.90
2020,04,10,16,14,14.90
2020,04,10,16,15,14.90
2020,04,10,16,16,14.80
2020,04,10,16,17,14.80
2020,04,10,16,18,14.80
2020,04,10,16,19,14.80
2020,04,10,16,20,14.80
2020,04,10,16,21,14.80
2020,04,10,16,22,14.70
2020,04,10,16,23,14.70
2020,04,10,16,24,14.70
2020,04,10,16,25,14.70
2020,04,10,16,26,14.70
2020,04,10,16,27,14.70
2020,04,10,16,28,14.80
2020,04,10,16,29,14.80
2020,04,10,16,30,14.80
2020,04,10,16,31,14.80
2020,04,10,16,32,14.80
2020,04,10,16,33,14.80
2020,04,10,16,34,14.80
2020,04,10,16,35,14.80
2020,04,10,16,36,14.80
2020,04,10,16,37,14.80
2020,04,10,16,38,14.80
2020,04,10,16,39,14.80
2020,04,10,16,40,14.80
2020,04,10,16,41,14.80
2020,04,10,16,42,14.80
2020,04,10,16,43,14.80
2020,04,10,16,44,14.80
2020,04,10,16,45,14.80
2020,04,10,16,46,14.80
2020,04,10,16,47,14.80
2020,04,10,16,48,14.80
2020,04,10,16,49,14.80
2020,04,10,16,50,14.90
2020,04,10,16,51,14.90
2020,04,10,16,52,14.90
2020,04,10,16,53,14.90
2020,04,10,16,54,14.90
2020,04,10,16,55,15.00
2020,04,10,16,56,15.00
2020,04,10,16,57,15.10
2020,04,10,16,58,15.10
2020,04,10,16,59,15.10
2020,04,10,17,00,15.20
2020,04,10,17,01,15.20
2020,04,10,17,02,15.20
2020,04,10,17,03,15.20
2020,04,10,17,04,15.20
2020,04,10,17,05,15.20
2020,04,10,17,06,15.20
2020,04,10,17,07,15.30
2020,04,10,17,08,15.30
2020,04,10,17,09,15.30
2020,04,10,17,10,15.30
2020,04,10,17,11,15.30
2020,04,10,17,12,15.30
2020,04,10,17,13,15.30
2020,04,10,17,14,15.30
2020,04,10,17,15,15.30
2020,04,10,17,16,15.20
2020,04,10,17,17,15.20
2020,04,10,17,18,15.20
2020,04,10,17,19,15.20
2020,04,10,17,20,15.10
2020,04,10,17,21,15.10
2020,04,10,17,22,15.10
2020,04,10,17,23,15.10
2020,04,10,17,24,15.00
2020,04,10,17,25,15.00
2020,04,10,17,26,15.00
2020,04,10,17,27,14.90
2020,04,10,17,28,14.90
2020,04,10,17,29,14.80
2020,04,10,17,30,14.80
2020,04,10,17,31,14.80
2020,04,10,17,32,14.70
2020,04,10,17,33,14.70
2020,04,10,17,34,14.70
2020,04,10,17,35,14.60
2020,04,10,17,36,14.60
2020,04,10,17,37,14.60
2020,04,10,17,38,14.60
2020,04,10,17,39,14.60
2020,04,10,17,40,14.60
2020,04,10,17,41,14.60
2020,04,10,17,42,14.50
2020,04,10,17,43,14.40
2020,04,10,17,44,14.40